[[{"header":{"parameterUnit":"m.s-1","parameterCategory":1,"la1":30.2991,"la2":30.254,"lo1":-89.0895,"lo2":-89.0444,"dy":0.0017,"dx":0.0017,"nx":28,"ny":28,"refTime":"2024-08-26T09:00:00:Z","depth":0,"parameterNumber":2,"parameterNumberName":"U-component_of_WINDS"},"data":[0,0,0,0,0,0,0,0,0,0,0,0,0,0,0,0,0,0,0,0,0,0,0,0,0,0,0,0,0,0,0,0,0,0,0,0,0,0,0,0,0,0,0,0,0,0,0,0,0,0,0,0,0,0,0,0,0,0,-3.479,-3.479,0,-3.4852,-3.4853,-3.4854,-3.4811,-3.4809,-3.4807,-3.4805,-3.4866,-3.487,-3.4873,0,0,0,0,0,0,0,0,0,0,0,0,0,-3.463,-3.4633,-3.479,-3.479,-3.4791,-3.4852,-3.4853,-3.4854,-3.4811,-3.4809,-3.4807,-3.4804,-3.4865,-3.4869,-3.4873,0,0,0,0,0,0,0,0,0,0,0,0,0,-3.4697,-3.4634,-3.4789,-3.4777,-3.4777,-3.4852,-3.4853,-3.4854,-3.4812,-3.4809,-3.4806,-3.4803,-3.4864,-3.4869,-3.4874,-3.4963,0,0,-3.4889,-3.4892,0,0,0,0,0,0,0,0,-3.4693,-3.4703,-3.4778,-3.4778,-3.4778,-3.4821,-3.4819,-3.4891,-3.4813,-3.4798,-3.4805,-3.4802,-3.4853,-3.4859,-3.4877,-3.4966,-3.4969,-3.489,-3.4893,-3.4895,-3.4897,0,0,0,0,0,0,0,-3.4689,-3.47,-3.4814,-3.4779,-3.4779,-3.4768,-3.4774,-3.4833,-3.4841,-3.4799,-3.4797,-3.4805,-3.4853,-3.4872,-3.4878,-3.497,-3.489,-3.4894,-3.4897,-3.4899,-3.5135,-3.5138,0,0,0,0,0,0,-3.4685,-3.4696,-3.4812,-3.4816,-3.4728,-3.4773,-3.478,-3.481,-3.484,-3.4842,-3.4807,-3.4803,-3.4865,-3.4872,-3.488,-3.4986,-3.4895,-3.49,-3.4903,-3.5132,-3.5136,-3.5139,0,0,0,0,0,0,-3.4682,-3.4696,-3.481,-3.4755,-3.4769,-3.4779,-3.4813,-3.4813,-3.4832,-3.4846,-3.4847,-3.4826,-3.4863,-3.4873,-3.4943,-3.4987,-3.4902,-3.4907,-3.5128,-3.5133,-3.5137,-3.5199,0,0,0,0,0,0,-3.4678,-3.4695,-3.473,-3.4757,-3.4772,-3.4872,-3.4816,-3.4816,-3.4842,-3.4836,-3.4864,-3.4866,-3.4861,-3.4936,-3.4948,-3.4993,-3.4911,-3.5124,-3.513,-3.5136,-3.5193,-3.5205,-3.5216,0,0,0,0,0,-3.4672,-3.4744,-3.4732,-3.4746,-3.4816,-3.4875,-3.4884,-3.4878,-3.4846,-3.488,-3.4889,-3.4865,-3.4982,-3.4943,-3.4957,-3.5004,-3.5121,-3.5129,-3.5135,-3.5188,-3.5203,-3.5216,0,0,0,0,0,0,-3.472,-3.4747,-3.4734,-3.4817,-3.4844,-3.4868,-3.491,-3.4894,-3.4931,-3.4924,-3.4915,-3.4921,-3.4995,-3.5007,-3.4964,-3.5092,-3.5046,-3.5056,-3.5081,-3.5095,-3.5107,-3.5101,-3.4915,0,0,0,0,0,-3.4741,-3.4788,-3.4808,-3.4879,-3.4894,-3.49,-3.4926,-3.492,-3.4947,-3.4958,-3.4972,-3.4999,-3.5042,-3.507,-3.511,-3.5196,-3.52,-3.5235,-3.5246,-3.5256,-3.5264,-3.5309,-3.5325,-3.5163,-3.5163,-3.5162,0,0,-3.4783,-3.4803,-3.4833,-3.489,-3.491,-3.4958,-3.491,-3.4963,-3.4998,-3.4966,-3.5032,-3.5045,-3.5074,-3.5152,-3.5187,-3.5164,-3.531,-3.5265,-3.5272,-3.5275,-3.5318,-3.5334,-3.5347,-3.5168,-3.5167,-3.5166,0,0,-3.4883,-3.4905,-3.4966,-3.4988,-3.502,-3.5024,-3.5039,-3.5066,-3.5073,-3.5141,-3.5118,-3.5159,-3.5233,-3.5255,-3.5275,-3.5387,-3.5366,-3.5401,-3.5459,-3.5504,-3.5516,-3.5528,-3.5566,-3.558,-3.5409,-3.5409,-3.541,0,-3.4931,-3.5003,-3.4999,-3.5054,-3.5078,-3.5054,-3.5115,-3.5137,-3.518,-3.5197,-3.5172,-3.5265,-3.5283,-3.5365,-3.5393,-3.5411,-3.5427,-3.5396,-3.5515,-3.5526,-3.5537,-3.5573,-3.5588,-3.5413,-3.5413,-3.5412,-3.5412,0,-3.5059,-3.511,-3.5155,-3.5199,-3.523,-3.5288,-3.5291,-3.5323,-3.5315,-3.5321,-3.539,-3.5412,-3.5456,-3.5475,-3.5467,-3.5557,-3.5542,-3.5517,-3.5469,-3.5556,-3.559,-3.5604,-3.5419,-3.5417,-3.5416,-3.5415,0,0,-3.5189,-3.5232,-3.5248,-3.5268,-3.5303,-3.5341,-3.5398,-3.5442,-3.5469,-3.5501,-3.5547,-3.5611,-3.5588,-3.5611,-3.5606,-3.5646,-3.5731,-3.5615,-3.5616,-3.5634,-3.583,-3.5848,-3.5864,-3.5719,-3.5722,-3.5724,-3.5827,0,-3.529,-3.539,-3.5388,-3.548,-3.5526,-3.5505,-3.5554,-3.5581,-3.5589,-3.5629,-3.5638,-3.5683,-3.565,-3.5664,-3.5703,-3.5713,-3.577,-3.5706,-3.576,-3.5762,-3.5751,-3.5882,-3.59,-3.5996,-3.5841,-3.5843,-3.5845,0,-3.5421,-3.5458,-3.5555,-3.5584,-3.5603,-3.5647,-3.5688,-3.5727,-3.5756,-3.576,-3.5788,-3.5777,-3.5834,-3.5788,-3.5865,-3.5822,-3.5844,-3.5853,-3.5857,-3.5859,-3.5807,-3.5886,-3.6027,-3.6041,-3.5866,-3.5864,-3.5863,0,-3.5503,-3.5578,-3.5645,-3.5663,-3.5699,-3.573,-3.5746,-3.5774,-3.58,-3.5836,-3.5853,-3.5895,-3.5917,-3.595,-3.595,-3.5917,-3.6029,-3.5983,-3.6032,-3.6032,-3.6053,-3.6051,-3.6198,-3.6073,-3.6072,-3.6072,-3.6072,0,-3.5615,-3.5674,-3.5683,-3.5724,-3.579,-3.5788,-3.5854,-3.5867,-3.5892,-3.5934,-3.5919,-3.5959,-3.5959,-3.6,-3.6001,-3.6064,-3.6075,-3.6078,-3.6077,-3.6078,-3.6078,-3.6091,-3.6083,-3.6076,-3.6075,-3.6074,-3.6074,0,-3.5716,-3.5725,-3.5796,-3.5826,-3.5834,-3.5881,-3.5906,-3.5945,-3.5953,-3.6007,-3.602,-3.6032,-3.608,-3.6085,-3.614,-3.614,-3.6217,-3.621,-3.6207,-3.6205,-3.6252,-3.6247,-3.6411,-3.6431,-3.6295,-3.6296,-3.6297,0,-3.5785,-3.5831,-3.5865,-3.5894,-3.5912,-3.5958,-3.5985,-3.5986,-3.6016,-3.6054,-3.6088,-3.6135,-3.6172,-3.6249,-3.6262,-3.6304,-3.6297,-3.6351,-3.6303,-3.6302,-3.6295,-3.6291,-3.6295,-3.636,-3.6361,-3.6362,-3.6363,0,-3.5907,-3.5909,-3.595,-3.5994,-3.6028,-3.6062,-3.6093,-3.6117,-3.6122,-3.6155,-3.6205,-3.6234,-3.6291,-3.6337,-3.6379,-3.6394,-3.6379,-3.6379,-3.6392,-3.6392,-3.6388,-3.6389,-3.623,-3.6375,-3.6373,-3.6373,-3.6372,-3.6372,-3.5993,-3.6032,-3.6063,-3.6109,-3.6134,-3.6164,-3.6202,-3.6216,-3.6257,-3.6304,-3.6303,-3.6357,-3.6386,-3.6441,-3.646,-3.6502,-3.6483,-3.6503,-3.6507,-3.6511,-3.6515,-3.6384,-3.651,-3.6509,-3.6509,-3.6509,-3.6509,0,-3.6112,-3.6131,-3.6174,-3.6219,-3.6256,-3.6242,-3.6276,-3.6307,-3.6355,-3.6384,-3.6422,-3.6478,-3.6523,-3.6541,-3.6585,-3.6615,-3.6609,-3.6627,-3.6623,-3.6627,-3.653,-3.6514,-3.663,-3.663,-3.663,-3.663,-3.663,-3.663,-3.6178,-3.6243,-3.625,-3.6327,-3.6346,-3.6399,-3.642,-3.6448,-3.6471,-3.6535,-3.6573,-3.6585,-3.661,-3.6656,-3.6696,-3.67,-3.6716,-3.6736,-3.6737,-3.6646,-3.6633,-3.6622,-3.6606,-3.674,-3.674,-3.6829,-3.683,-3.6831]},{"header":{"parameterUnit":"m.s-1","parameterCategory":1,"la1":30.2991,"la2":30.254,"lo1":-89.0895,"lo2":-89.0444,"dy":0.0017,"dx":0.0017,"nx":28,"ny":28,"refTime":"2024-08-26T09:00:00:Z","depth":0,"parameterNumber":3,"parameterNumberName":"V-component_of_WINDS"},"data":[0,0,0,0,0,0,0,0,0,0,0,0,0,0,0,0,0,0,0,0,0,0,0,0,0,0,0,0,0,0,0,0,0,0,0,0,0,0,0,0,0,0,0,0,0,0,0,0,0,0,0,0,0,0,0,0,0,0,0.3633,0.3633,0,0.3558,0.3557,0.3556,0.3525,0.3525,0.3526,0.3526,0.3446,0.3444,0.3441,0,0,0,0,0,0,0,0,0,0,0,0,0,0.3749,0.3747,0.3634,0.3633,0.3632,0.3558,0.3557,0.3556,0.3525,0.3525,0.3526,0.3526,0.3447,0.3444,0.3441,0,0,0,0,0,0,0,0,0,0,0,0,0,0.3688,0.3746,0.3634,0.3607,0.3604,0.3558,0.3557,0.3556,0.3525,0.3525,0.3526,0.3526,0.3447,0.3444,0.3441,0.3415,0,0,0.343,0.3429,0,0,0,0,0,0,0,0,0.3692,0.3684,0.3612,0.3609,0.3606,0.3551,0.3568,0.3508,0.3525,0.3555,0.3526,0.3526,0.3481,0.3474,0.346,0.3411,0.3407,0.343,0.3428,0.3426,0.3425,0,0,0,0,0,0,0,0.3696,0.3687,0.3604,0.3611,0.3607,0.3599,0.359,0.3557,0.3517,0.3553,0.355,0.3542,0.3479,0.3463,0.3458,0.3406,0.343,0.3427,0.3425,0.3424,0.3333,0.3333,0,0,0,0,0,0,0.3705,0.3691,0.3606,0.3601,0.365,0.3597,0.3587,0.3568,0.3518,0.351,0.3542,0.3541,0.3469,0.3462,0.3455,0.3421,0.3426,0.3423,0.3421,0.3333,0.3333,0.3333,0,0,0,0,0,0,0.3708,0.3698,0.3609,0.3645,0.3634,0.3594,0.3573,0.3567,0.3551,0.3509,0.3502,0.3533,0.3469,0.3459,0.3425,0.3418,0.3422,0.3419,0.3334,0.3333,0.3333,0.3353,0,0,0,0,0,0,0.3711,0.3699,0.3689,0.3646,0.3632,0.3581,0.3573,0.3565,0.3546,0.3544,0.3499,0.3492,0.3468,0.343,0.3422,0.3413,0.3416,0.3334,0.3334,0.3333,0.3353,0.3353,0.3354,0,0,0,0,0,0.3715,0.3697,0.3688,0.3678,0.3619,0.3581,0.3573,0.3547,0.3545,0.3534,0.3508,0.3493,0.342,0.3427,0.3417,0.3407,0.3335,0.3334,0.3333,0.3353,0.3353,0.3354,0,0,0,0,0,0,0.3739,0.369,0.3681,0.3648,0.3619,0.3576,0.3561,0.3548,0.3518,0.3517,0.3485,0.3475,0.3444,0.3422,0.3431,0.338,0.3376,0.3373,0.3395,0.3395,0.3395,0.3401,0.3413,0,0,0,0,0,0.374,0.3715,0.3674,0.3648,0.3635,0.3601,0.3583,0.3566,0.3534,0.3521,0.3492,0.3461,0.3431,0.3412,0.3382,0.335,0.334,0.3339,0.3339,0.334,0.3337,0.3319,0.3318,0.333,0.333,0.333,0,0,0.3743,0.3713,0.3699,0.3653,0.3628,0.3602,0.359,0.3563,0.3543,0.3517,0.3483,0.3461,0.3424,0.3391,0.3375,0.3372,0.3332,0.3339,0.3339,0.3336,0.3318,0.3317,0.3316,0.3329,0.333,0.333,0,0,0.3734,0.3709,0.3686,0.3662,0.3625,0.3603,0.3598,0.3557,0.3542,0.3508,0.3488,0.3463,0.3412,0.3387,0.3368,0.3352,0.3337,0.3343,0.3344,0.3327,0.3326,0.3325,0.3319,0.3318,0.3341,0.3341,0.3341,0,0.3741,0.3701,0.3675,0.3649,0.3629,0.3606,0.3582,0.356,0.3515,0.3502,0.35,0.3436,0.341,0.3371,0.3367,0.3352,0.3345,0.3347,0.3329,0.3327,0.3326,0.332,0.3318,0.3342,0.3341,0.3341,0.3341,0,0.3712,0.3684,0.367,0.3629,0.3607,0.3582,0.3552,0.3534,0.3519,0.3497,0.3463,0.3431,0.3394,0.3384,0.3368,0.3343,0.3343,0.3335,0.3331,0.3326,0.332,0.3317,0.3343,0.3343,0.3342,0.3342,0,0,0.3713,0.366,0.3655,0.3636,0.3595,0.3573,0.3548,0.3513,0.3498,0.3468,0.3446,0.3404,0.3397,0.3375,0.3357,0.3342,0.3331,0.3336,0.3335,0.3336,0.3302,0.3307,0.3305,0.3322,0.3322,0.3321,0.3305,0,0.3698,0.3652,0.3628,0.3592,0.3566,0.3545,0.3523,0.3495,0.3474,0.3449,0.3426,0.3397,0.339,0.3377,0.3362,0.3336,0.3324,0.3337,0.33,0.3299,0.3309,0.3302,0.3307,0.3293,0.3302,0.3302,0.3301,0,0.3674,0.3646,0.3607,0.357,0.3559,0.3539,0.3506,0.3483,0.3451,0.3437,0.3414,0.3396,0.3368,0.3367,0.3328,0.3337,0.3321,0.3306,0.3305,0.33,0.3299,0.3295,0.3287,0.3285,0.3297,0.3298,0.3298,0,0.3678,0.3631,0.3602,0.3587,0.3543,0.353,0.3511,0.348,0.3461,0.3432,0.342,0.3388,0.337,0.3346,0.332,0.3322,0.3283,0.328,0.3271,0.3271,0.3262,0.3263,0.3251,0.3253,0.3253,0.3253,0.3253,0,0.3663,0.364,0.3604,0.3586,0.3559,0.3533,0.3508,0.3487,0.346,0.3437,0.3417,0.3396,0.3364,0.3339,0.3319,0.3289,0.3281,0.3269,0.3264,0.327,0.3272,0.3258,0.3258,0.3253,0.3253,0.3253,0.3253,0,0.3663,0.3638,0.3605,0.3567,0.3557,0.3539,0.3507,0.3488,0.3468,0.3439,0.3431,0.3398,0.3368,0.334,0.33,0.3286,0.3256,0.325,0.3267,0.3264,0.3256,0.3257,0.3234,0.323,0.3236,0.3236,0.3236,0,0.3655,0.3637,0.3598,0.3582,0.3564,0.3538,0.3519,0.3493,0.3474,0.3438,0.3424,0.3393,0.3366,0.3319,0.3291,0.326,0.3252,0.3247,0.3247,0.3255,0.3252,0.3253,0.3251,0.3246,0.3246,0.3246,0.3247,0,0.3642,0.3631,0.3605,0.3576,0.3554,0.3529,0.3503,0.3491,0.346,0.344,0.341,0.339,0.3349,0.3318,0.3285,0.3265,0.325,0.3247,0.3243,0.3249,0.3259,0.3253,0.3267,0.3247,0.3247,0.3247,0.3247,0.3247,0.3637,0.3621,0.3591,0.3563,0.3542,0.3518,0.35,0.3477,0.3452,0.3417,0.3404,0.3373,0.3343,0.3296,0.3277,0.3252,0.3249,0.3243,0.3242,0.3241,0.3242,0.3265,0.3246,0.3246,0.3246,0.3246,0.3246,0,0.3623,0.3604,0.3579,0.3544,0.3523,0.3513,0.3484,0.3466,0.344,0.3414,0.3388,0.3354,0.3324,0.3295,0.3264,0.325,0.3242,0.3242,0.3242,0.3238,0.3246,0.3253,0.3249,0.3249,0.3249,0.3249,0.3249,0.3249,0.3614,0.3585,0.3571,0.3531,0.3512,0.3482,0.3467,0.3445,0.3424,0.3387,0.3363,0.3344,0.3317,0.3284,0.3256,0.3249,0.3238,0.3239,0.323,0.3237,0.3237,0.3237,0.3243,0.3237,0.3237,0.3223,0.3223,0.3223]}]]